GSAT-15 (GAGAN/PRN 139)

Last updated on Wed Nov 05 2025 00:03:27 GMT+0000 (Coordinated Universal Time)

1 41028U 15065A 25308.09044749 -.00000245 00000+0 00000+0 0 9997 2 41028 0.0122 235.5355 0003348 334.1911 319.9573 1.00271777 36547
UTC large
Height (km)
Speed (km/s)
/
Latitude / Longitude
Inclination (degrees)
Orbital Period (minutes)
Azimuth
Elevation
Range (km)
Doppler Factor

Next 0 passes for location: London (51.5072 / 0.1276)

Sorry there are no passes over London.